Weather History for Show Low, AZ

Change the Weather History Date:

Tuesday, February 12, 2013

  Actual Average Record
Temperature  
Mean Temperature 14 °F -  
Max Temperature 26 °F 47 °F 61 °F (1979)
Min Temperature 1 °F 28 °F 1 °F (2013)
Degree Days  
Heating Degree Days 52    
Moisture  
Dew Point 12 °F    
Average Humidity 83    
Maximum Humidity 100    
Minimum Humidity 64    
Precipitation  
Precipitation 0.00 in - - ()
Sea Level Pressure  
Sea Level Pressure 30.15 in    
Wind  
Wind Speed 2 mph (NE)    
Max Wind Speed 8 mph    
Max Gust Speed -    
Visibility 9 miles    
Events      
Averages and records for this station are not official NWS values.
T = Trace of Precipitation, MM = Missing Value Source: NWS Daily Summary

Daily Weather History Graph

Daily Weather History Graph

Search for Another Location

Airport:

Trip Planner

Search our weather history database for the weather conditions in past years. The results will help you decide how hot, cold, wet, or windy it might be!

Date:

Astronomy

Feb. 12, 2013 Rise Set
Actual Time 7:07 AM MST 6:01 PM MST
Civil Twilight 6:41 AM MST 6:26 PM MST
Nautical Twilight 6:12 AM MST 6:56 PM MST
Astronomical Twilight 5:43 AM MST 7:25 PM MST
Moon 8:16 AM MST (2/12) 8:54 PM MST (2/12)
Length of Visible Light 11h 44m
Length of Day
10h 53m
Waxing Crescent, 8% of the Moon is Illuminated
Feb 12
Waxing Crescent
Feb 17
First Quarter
Feb 25
Full
Mar 4
Last Quarter
Mar 11
New

Hourly Weather History & Observations

Time (MST) Temp. Windchill Dew Point Humidity Pressure Visibility Wind Dir Wind Speed Gust Speed Precip Events Conditions
12:15 AM 14.0 °F - 10.4 °F 86% 30.06 in 2.0 mi Calm Calm - N/A   Overcast
12:35 AM 12.2 °F - 10.4 °F 92% 30.06 in 2.5 mi Calm Calm - N/A   Mostly Cloudy
12:55 AM 12.2 °F - 10.4 °F 92% 30.07 in 0.8 mi Calm Calm - N/A   Overcast
1:15 AM 12.2 °F - 10.4 °F 92% 30.07 in 10.0 mi Calm Calm - N/A   Mostly Cloudy
1:35 AM 12.2 °F - 8.6 °F 85% 30.07 in 7.0 mi Calm Calm - N/A   Mostly Cloudy
1:55 AM 10.4 °F - 8.6 °F 92% 30.07 in 6.0 mi Calm Calm - N/A   Mostly Cloudy
2:15 AM 10.4 °F - 8.6 °F 92% 30.07 in 1.0 mi Calm Calm - N/A   Mostly Cloudy
2:35 AM 12.2 °F - 8.6 °F 85% 30.08 in 1.0 mi Calm Calm - N/A   Mostly Cloudy
2:55 AM 10.4 °F - 8.6 °F 92% 30.08 in 1.5 mi Calm Calm - N/A   Overcast
3:15 AM 10.4 °F 4.0 °F 6.8 °F 85% 30.08 in 10.0 mi ENE 3.5 mph - N/A   Overcast
3:35 AM 12.2 °F - 10.4 °F 92% 30.08 in 10.0 mi Calm Calm - N/A   Overcast
3:55 AM 14.0 °F - 10.4 °F 86% 30.08 in 10.0 mi Calm Calm - N/A   Mostly Cloudy
4:15 AM 10.4 °F - 8.6 °F 92% 30.08 in 10.0 mi Calm Calm - N/A   Overcast
4:35 AM 10.4 °F - 8.6 °F 92% 30.09 in 10.0 mi Calm Calm - N/A   Scattered Clouds
4:55 AM 12.2 °F - 10.4 °F 92% 30.10 in 10.0 mi Calm Calm - N/A   Mostly Cloudy
5:15 AM 10.4 °F - 6.8 °F 85% 30.10 in 10.0 mi Calm Calm - N/A   Mostly Cloudy
5:35 AM 10.4 °F - 6.8 °F 85% 30.10 in 10.0 mi Calm Calm - N/A   Partly Cloudy
5:55 AM 10.4 °F 4.0 °F 6.8 °F 85% 30.10 in 10.0 mi ENE 3.5 mph - N/A   Clear
6:15 AM 8.6 °F - 6.8 °F 92% 30.11 in 10.0 mi Calm Calm - N/A   Clear
6:35 AM 8.6 °F - 5.0 °F 85% 30.12 in 10.0 mi Calm Calm - N/A   Clear
6:55 AM 6.8 °F - 5.0 °F 92% 30.13 in 1.5 mi Calm Calm - N/A   Clear
7:15 AM 1.4 °F - -0.4 °F 92% 30.14 in 1.0 mi Calm Calm - N/A   Mostly Cloudy
7:35 AM 3.2 °F - -0.4 °F 85% 30.14 in 10.0 mi Calm Calm - N/A   Clear
7:55 AM 5.0 °F - 1.4 °F 85% 30.15 in 10.0 mi Calm Calm - N/A   Clear
8:15 AM 6.8 °F - 1.4 °F 79% 30.16 in 10.0 mi Calm Calm - N/A   Clear
8:35 AM 10.4 °F - 8.6 °F 92% 30.16 in 10.0 mi Calm Calm - N/A   Clear
8:55 AM 10.4 °F - 8.6 °F 92% 30.17 in 8.0 mi Calm Calm - N/A   Clear
9:15 AM 14.0 °F - 10.4 °F 86% 30.17 in 10.0 mi Calm Calm - N/A   Clear
9:35 AM 14.0 °F - 10.4 °F 86% 30.18 in 9.0 mi Calm Calm - N/A   Clear
9:55 AM 15.8 °F - 12.2 °F 86% 30.18 in 9.0 mi Calm Calm - N/A   Clear
10:15 AM 17.6 °F - 15.8 °F 93% 30.18 in 10.0 mi Calm Calm - N/A   Clear
10:35 AM 19.4 °F - 17.6 °F 93% 30.19 in 10.0 mi Calm Calm - N/A   Clear
10:55 AM 19.4 °F 12.8 °F 17.6 °F 93% 30.20 in 10.0 mi NNW 4.6 mph - N/A   Clear
11:15 AM 19.4 °F 10.4 °F 19.4 °F 100% 30.20 in 10.0 mi North 6.9 mph - N/A   Clear
11:35 AM 21.2 °F 12.6 °F 19.4 °F 93% 30.20 in 10.0 mi North 6.9 mph - N/A   Clear
11:55 AM 21.2 °F 12.6 °F 19.4 °F 93% 30.20 in 10.0 mi North 6.9 mph - N/A   Clear
12:15 PM 21.2 °F 12.6 °F 19.4 °F 93% 30.20 in 10.0 mi North 6.9 mph - N/A   Clear
12:35 PM 23.0 °F 15.8 °F 19.4 °F 86% 30.19 in 10.0 mi North 5.8 mph - N/A   Clear
12:55 PM 23.0 °F 15.8 °F 21.2 °F 93% 30.18 in 10.0 mi North 5.8 mph - N/A   Clear
1:15 PM 23.0 °F 15.8 °F 21.2 °F 93% 30.18 in 10.0 mi NNW 5.8 mph - N/A   Clear
1:35 PM 23.0 °F 14.7 °F 21.2 °F 93% 30.17 in 10.0 mi North 6.9 mph - N/A   Clear
1:55 PM 24.8 °F 16.9 °F 19.4 °F 80% 30.17 in 10.0 mi North 6.9 mph - N/A   Clear
2:15 PM 24.8 °F 16.9 °F 15.8 °F 69% 30.17 in 10.0 mi North 6.9 mph - N/A   Clear
2:35 PM 24.8 °F 16.1 °F 15.8 °F 69% 30.17 in 10.0 mi North 8.1 mph - N/A   Clear
2:55 PM 24.8 °F 16.9 °F 15.8 °F 69% 30.16 in 10.0 mi North 6.9 mph - N/A   Clear
3:15 PM 24.8 °F 16.1 °F 15.8 °F 69% 30.16 in 10.0 mi North 8.1 mph - N/A   Clear
3:35 PM 26.6 °F 20.0 °F 15.8 °F 64% 30.16 in 10.0 mi North 5.8 mph - N/A   Clear
3:55 PM 26.6 °F 21.2 °F 15.8 °F 64% 30.17 in 10.0 mi NNE 4.6 mph - N/A   Partly Cloudy
4:15 PM 26.6 °F 22.6 °F 15.8 °F 64% 30.16 in 10.0 mi North 3.5 mph - N/A   Scattered Clouds
4:35 PM 24.8 °F 19.1 °F 14.0 °F 64% 30.17 in 10.0 mi North 4.6 mph - N/A   Partly Cloudy
4:55 PM 24.8 °F 16.9 °F 15.8 °F 69% 30.17 in 10.0 mi North 6.9 mph - N/A   Clear
5:15 PM 24.8 °F 17.9 °F 15.8 °F 69% 30.17 in 10.0 mi North 5.8 mph - N/A   Clear
5:35 PM 23.0 °F 17.0 °F 14.0 °F 68% 30.17 in 10.0 mi North 4.6 mph - N/A   Clear
5:55 PM 23.0 °F 18.4 °F 14.0 °F 68% 30.17 in 10.0 mi North 3.5 mph - N/A   Clear
6:15 PM 21.2 °F 14.9 °F 14.0 °F 74% 30.18 in 10.0 mi North 4.6 mph - N/A   Clear
6:35 PM 19.4 °F 14.3 °F 14.0 °F 80% 30.19 in 10.0 mi North 3.5 mph - N/A   Clear
6:55 PM 17.6 °F 9.3 °F 14.0 °F 86% 30.19 in 10.0 mi NNE 5.8 mph - N/A   Clear
7:15 PM 17.6 °F 10.7 °F 14.0 °F 86% 30.20 in 10.0 mi ENE 4.6 mph - N/A   Clear
7:35 PM 17.6 °F 12.3 °F 14.0 °F 86% 30.20 in 10.0 mi East 3.5 mph - N/A   Clear
7:55 PM 17.6 °F 10.7 °F 12.2 °F 79% 30.20 in 10.0 mi East 4.6 mph - N/A   Clear
8:15 PM 15.8 °F 7.2 °F 12.2 °F 86% 30.20 in 10.0 mi East 5.8 mph - N/A   Clear
8:35 PM 15.8 °F 7.2 °F 12.2 °F 86% 30.20 in 10.0 mi East 5.8 mph - N/A   Clear
8:55 PM 14.0 °F 5.1 °F 10.4 °F 86% 30.20 in 10.0 mi East 5.8 mph - N/A   Clear
9:15 PM 14.0 °F 3.9 °F 10.4 °F 86% 30.20 in 10.0 mi East 6.9 mph - N/A   Clear
9:35 PM 14.0 °F 3.9 °F 8.6 °F 79% 30.20 in 10.0 mi East 6.9 mph - N/A   Clear
9:55 PM 15.8 °F 7.2 °F 10.4 °F 79% 30.20 in 10.0 mi East 5.8 mph - N/A   Clear
10:15 PM 15.8 °F 6.1 °F 10.4 °F 79% 30.21 in 10.0 mi East 6.9 mph - N/A   Clear
10:35 PM 17.6 °F 9.3 °F 10.4 °F 73% 30.20 in 10.0 mi East 5.8 mph - N/A   Clear
10:55 PM 17.6 °F 8.2 °F 10.4 °F 73% 30.20 in 10.0 mi East 6.9 mph - N/A   Clear
11:15 PM 17.6 °F 9.3 °F 10.4 °F 73% 30.19 in 10.0 mi East 5.8 mph - N/A   Clear
11:35 PM 17.6 °F 8.2 °F 10.4 °F 73% 30.19 in 10.0 mi East 6.9 mph - N/A   Clear
11:55 PM 15.8 °F 10.2 °F 8.6 °F 73% 30.19 in 10.0 mi ESE 3.5 mph - N/A   Clear